Probability
4 4 5 8 8 7 6 9 12 14 14 13 12 11 8 6 6 6 5 4 3 1 0 0 0 0 0 0 0 0 0 0 0 0 0 0 0 0 0 0 0 0 0
3 3 5 8 10 10 10 10 11 12 13 13 13 12 9 7 5 5 4 4 2 1 0 0 0 0 0 0 0 0 0 0 0 0 0 0 0 0 0 0 0 0 0
3 3 5 9 13 15 16 14 12 11 11 12 13 13 11 8 5 4 3 2 1 0 0 0 0 0 0 0 0 0 0 0 0 0 0 0 0 0 0 0 0 0 0
6 4 6 10 15 19 20 18 15 12 10 10 11 12 12 10 7 5 4 2 1 0 0 0 0 0 0 0 0 0 0 0 0 0 0 0 0 0 0 0 0 0 0
7 6 7 13 17 19 21 20 17 13 10 9 9 9 10 9 8 7 6 4 2 1 0 0 0 0 0 0 0 0 0 0 0 0 0 0 0 0 0 0 0 0 0
6 6 10 15 18 19 19 19 18 14 10 8 7 6 6 6 7 8 8 7 5 3 1 0 0 0 0 0 0 0 0 0 0 0 0 0 0 0 0 0 0 0 0
5 6 9 14 16 15 14 16 16 14 11 7 6 5 4 5 8 9 9 8 8 6 3 1 0 1 1 1 1 1 0 0 0 0 0 0 0 0 0 0 0 0 0
4 4 7 11 12 11 11 11 13 14 13 11 9 8 7 9 11 11 10 9 8 7 5 3 1 2 3 3 2 1 0 0 0 0 0 0 0 0 0 0 0 0 0
5 5 7 9 9 8 7 7 8 10 13 14 14 13 12 12 13 12 10 9 8 7 6 4 2 3 4 4 3 1 0 0 0 0 0 0 0 0 0 0 0 0 0
6 7 8 8 7 5 3 2 3 4 8 12 13 12 11 10 10 9 8 8 9 8 6 4 4 6 5 4 3 1 0 0 0 0 0 0 0 0 0 0 0 0 0
4 5 6 6 5 2 0 0 0 1 3 6 8 8 7 6 6 5 4 4 8 11 9 6 6 8 6 3 2 0 0 0 0 0 0 0 0 0 0 0 0 0 0
1 1 2 3 2 1 0 0 1 1 1 2 4 4 4 5 5 5 3 3 6 11 10 8 7 7 5 3 1 0 0 0 0 0 0 0 0 0 0 0 0 0 0
0 0 0 1 1 0 0 0 1 2 2 2 3 3 2 3 5 5 3 3 5 8 9 8 7 6 4 2 1 0 0 0 0 0 0 0 0 0 0 0 0 0 0
0 0 0 0 0 0 0 0 0 1 2 3 3 3 3 3 4 4 4 4 5 8 9 7 6 5 3 2 1 0 0 0 0 0 0 0 0 0 0 0 0 0 0
0 0 0 0 0 0 0 0 0 0 1 3 3 3 3 3 3 3 4 4 6 8 9 8 5 4 3 2 1 0 0 0 0 0 0 0 0 1 1 1 0 0 0
0 0 0 0 0 0 0 0 0 0 1 2 3 3 3 3 3 3 4 5 6 8 9 8 6 3 2 1 1 0 0 0 0 0 0 0 0 1 2 2 2 1 1
0 0 0 0 0 0 0 0 0 0 0 1 2 3 3 3 3 3 3 5 7 8 10 10 7 4 2 1 0 0 0 0 0 0 0 0 0 0 1 3 5 5 4
0 0 0 0 0 0 0 0 0 0 0 0 1 2 3 4 4 3 3 4 6 9 11 11 8 5 2 1 0 0 0 0 0 0 0 0 0 0 0 2 5 6 5
0 0 0 0 0 0 0 0 0 0 0 0 0 1 2 3 4 4 3 4 6 9 11 11 8 5 3 1 0 0 0 0 0 0 0 0 0 0 0 1 2 2 2
0 0 0 0 0 0 0 0 0 0 0 0 0 0 1 1 3 4 4 4 6 9 10 9 7 4 2 1 0 0 0 0 0 0 0 0 0 0 0 0 0 0 0
0 0 0 0 0 0 0 0 0 0 0 0 0 0 0 0 1 3 4 5 7 9 9 8 7 4 1 0 0 0 0 0 0 0 0 0 0 0 0 0 0 0 0
0 0 0 0 0 0 0 0 0 0 0 0 0 0 0 0 1 2 4 5 8 10 9 8 7 4 1 0 0 0 0 0 0 0 0 0 0 0 0 0 0 0 0
0 0 0 0 0 0 0 0 0 0 0 0 0 0 0 0 1 2 3 5 8 10 9 7 6 4 1 0 0 0 0 0 0 0 0 0 0 0 0 0 0 0 0
0 0 0 0 0 0 0 0 0 0 0 0 0 0 0 0 0 1 3 5 7 8 7 6 5 4 1 0 0 0 0 0 0 0 0 0 0 0 0 0 0 0 0
0 0 0 0 0 0 0 0 0 0 0 0 0 0 0 0 0 0 2 4 5 4 4 5 5 3 1 0 0 0 0 0 0 0 0 0 0 0 0 0 0 0 0
0 0 0 0 0 0 0 0 0 0 0 0 0 0 0 0 0 0 1 2 4 3 3 4 5 3 2 1 0 0 0 0 0 0 0 0 0 0 0 0 0 0 0
Wind_Speed
1 2 3 4 6 7 7 7 8 8 8 8 9 9 9 9 10 10 10 10 10 10 11 10 10 10 10 11 12 12 13 13 13 12 11 10 11 12 12 11 10 7 13
2 1 3 4 5 6 6 7 6 7 8 8 8 8 8 8 9 10 10 9 9 9 10 10 10 10 10 11 12 12 12 12 12 11 10 8 9 11 12 11 10 7 12
3 2 3 4 5 5 5 6 6 6 7 7 8 8 8 8 8 9 9 9 9 9 9 9 10 9 10 10 11 11 11 12 11 10 8 4 6 11 11 11 10 11 11
3 2 3 4 4 4 5 5 5 5 5 6 7 7 7 8 8 8 9 9 9 8 8 9 9 9 9 9 10 10 10 10 9 7 4 3 3 9 10 10 10 10 10
4 3 2 4 3 3 3 3 4 4 5 5 5 6 7 7 8 8 9 9 8 8 8 9 9 9 9 9 9 9 9 8 6 5 3 2 2 8 9 9 9 9 9
3 2 3 4 3 2 2 2 3 3 4 5 5 5 7 8 8 8 8 8 8 8 8 9 10 9 9 8 8 8 7 6 5 3 2 3 3 7 9 8 8 8 8
3 2 2 4 3 2 1 1 1 2 4 5 5 6 6 7 8 8 8 8 8 9 9 10 10 10 9 9 8 7 6 5 4 3 3 3 4 8 8 8 8 7 7
3 3 2 4 4 3 2 1 1 2 3 4 5 6 6 6 7 7 8 9 9 9 10 10 11 10 10 9 8 6 5 5 4 4 3 3 6 9 8 8 7 7 6
3 3 2 1 2 3 3 3 3 3 3 3 4 5 5 5 6 7 8 9 10 10 10 10 11 11 10 10 8 6 5 4 3 2 4 3 7 9 9 8 8 7 6
4 3 3 2 2 2 3 4 4 4 3 4 4 5 5 5 6 6 7 8 9 10 10 11 11 11 11 10 8 7 5 4 3 3 3 4 9 10 10 9 8 7 6
5 4 3 3 3 3 3 4 4 4 4 4 4 5 5 3 4 5 6 7 8 9 11 12 12 11 9 9 8 7 5 2 3 2 3 7 10 11 10 9 8 8 7
4 4 3 3 3 3 3 3 2 2 2 3 2 3 3 3 3 5 6 8 8 9 10 11 11 10 7 4 5 6 2 3 3 3 4 8 11 11 10 10 9 8 7
3 4 4 3 3 3 2 2 2 2 2 2 3 3 3 3 3 3 2 4 5 6 5 6 7 5 4 4 3 3 4 3 3 3 4 9 11 11 11 11 10 9 9
3 4 4 3 3 3 3 3 2 2 2 2 3 4 3 2 3 3 3 3 3 3 4 4 4 5 5 6 5 5 5 4 3 3 4 9 10 12 12 12 11 11 10
3 4 4 4 4 4 3 3 3 2 3 3 3 3 4 3 3 4 3 4 4 4 4 4 4 5 6 6 6 6 6 6 5 4 4 9 11 11 12 12 12 11 10
4 5 4 4 4 4 3 3 3 3 3 3 3 4 5 4 4 4 4 4 4 5 5 5 6 5 5 5 6 6 6 6 6 6 5 7 11 11 12 13 12 11 11
4 4 4 5 4 4 4 4 3 3 3 3 3 4 4 4 4 4 4 4 4 5 6 5 5 4 4 5 6 6 6 6 6 6 6 5 6 9 11 12 12 12 11
4 4 4 5 5 5 4 4 3 3 3 3 3 3 4 5 5 4 4 4 4 4 5 5 5 5 4 4 5 5 5 5 7 6 5 5 5 5 8 10 10 11 11
4 5 4 5 5 5 5 4 4 3 3 3 2 3 3 4 4 4 4 4 4 4 4 5 5 5 4 4 5 5 5 5 6 6 6 6 6 5 5 7 9 9 9
4 4 4 5 5 4 4 3 3 2 2 2 2 3 3 3 4 3 3 4 4 4 4 4 5 4 4 4 4 4 5 5 5 5 6 6 5 6 5 5 5 6 8
5 5 5 5 5 4 3 3 3 2 2 2 2 3 3 3 3 3 3 3 4 4 5 5 5 5 4 3 2 2 3 4 5 5 5 4 5 5 5 5 4 4 4
6 6 6 5 5 4 3 3 2 3 2 2 2 2 3 3 3 3 3 3 4 4 4 4 4 3 3 3 3 2 1 2 3 4 4 5 5 4 5 5 5 5 4
6 6 6 6 6 5 4 3 2 2 2 2 2 2 3 3 3 2 3 3 4 4 4 5 5 6 4 3 4 4 3 3 1 2 4 4 4 4 4 4 5 5 5
6 6 6 6 6 5 4 3 2 2 2 3 2 2 3 2 2 2 2 2 3 4 4 5 5 4 5 4 3 3 3 2 2 2 2 3 4 5 5 4 5 5 5
6 6 6 6 6 5 4 3 2 3 3 3 2 2 2 2 2 2 2 2 3 3 3 4 4 4 4 4 4 3 2 2 2 2 3 2 2 3 4 4 4 4 4
6 6 5 6 6 5 4 4 3 3 3 3 2 2 2 2 2 2 2 2 2 3 3 3 4 4 4 4 3 3 3 3 3 2 4 4 4 3 3 3 3 3 3
Wind_Direction
272 223 129 121 120 118 119 119 130 136 135 133 130 128 125 126 126 127 128 130 132 133 130 127 123 119 115 113 110 107 106 105 102 97 91 90 96 99 96 92 87 80 86
185 178 114 116 116 119 121 125 124 135 144 146 144 142 141 138 141 142 142 142 142 142 139 135 131 126 122 119 116 114 112 109 105 99 91 86 96 102 102 98 95 94 91
125 133 118 109 110 116 120 126 132 134 148 157 157 156 156 154 153 154 152 154 153 149 147 144 141 133 128 125 123 121 119 116 112 105 99 91 101 106 106 104 101 99 97
111 101 94 99 107 114 124 132 143 148 152 163 168 168 169 169 165 165 165 165 162 156 153 149 146 140 136 133 133 130 128 125 119 113 102 108 115 116 114 111 107 103 101
79 77 80 78 95 106 124 138 152 161 166 168 173 180 179 180 180 176 175 173 168 162 156 152 150 148 146 144 143 141 138 133 123 109 110 122 127 125 120 115 112 109 106
68 60 66 68 68 78 103 140 164 175 182 183 183 188 191 190 191 189 182 175 171 167 164 161 161 160 158 157 156 154 148 138 118 111 130 146 145 136 129 126 123 120 114
59 52 57 48 46 48 59 126 190 199 202 201 199 200 202 200 197 195 187 179 174 175 175 171 170 170 170 168 168 165 154 145 130 136 153 164 166 151 144 141 136 131 124
64 49 48 31 18 10 347 316 267 249 234 220 214 211 209 210 206 198 190 185 182 182 181 180 180 181 180 178 177 173 160 152 140 153 167 181 180 163 158 156 151 146 141
45 38 22 7 357 347 334 316 293 269 260 248 231 221 218 214 213 205 195 192 190 189 188 188 187 186 186 188 186 182 175 163 143 158 175 190 186 173 169 168 167 163 159
25 17 355 344 342 328 309 307 300 284 268 259 253 236 224 219 215 209 203 200 197 195 194 193 190 191 192 193 193 191 188 168 165 183 187 200 193 182 177 178 179 178 175
7 356 347 335 327 317 299 297 300 289 275 265 252 241 229 220 214 209 210 206 202 200 199 198 195 195 194 197 198 200 192 179 178 194 195 202 195 189 184 186 188 189 190
342 336 342 331 319 313 308 303 284 278 268 258 252 239 226 218 216 215 213 209 207 204 204 204 201 196 189 196 205 201 193 190 191 202 205 207 200 197 192 193 196 198 201
309 323 329 323 314 307 299 293 277 273 272 258 247 239 233 222 220 215 205 209 207 205 206 209 203 197 192 193 200 202 199 195 198 206 210 212 207 204 201 200 203 207 211
311 305 308 310 311 301 290 284 268 258 259 256 246 234 223 225 221 213 208 205 201 200 200 200 200 199 197 199 199 204 206 203 202 204 215 216 212 210 208 207 208 211 214
307 304 301 302 301 299 295 284 282 261 255 245 244 236 224 220 223 219 215 208 207 201 197 199 203 203 202 203 205 206 213 212 209 205 212 216 216 215 213 212 213 215 217
303 301 301 298 293 293 286 280 274 266 263 250 238 240 232 223 223 221 218 213 211 206 201 199 202 206 210 208 212 212 214 215 213 210 210 214 217 214 214 215 217 218 220
299 301 301 297 300 295 285 276 276 271 269 261 251 245 240 231 223 223 220 216 215 210 203 199 202 204 214 216 218 217 215 218 216 215 213 210 211 216 216 216 218 219 222
311 309 307 315 315 301 289 280 275 268 263 261 258 254 247 239 226 217 223 223 217 211 204 203 201 203 212 218 220 222 219 217 217 215 211 209 208 210 215 215 217 219 221
314 312 313 313 309 304 295 285 278 270 259 260 263 260 256 251 236 220 225 227 215 210 209 210 205 201 208 218 224 222 219 215 215 212 210 208 208 207 206 211 215 220 221
328 325 322 320 314 309 306 302 293 285 276 269 270 270 266 260 248 233 233 234 219 211 212 209 207 205 207 211 226 230 226 220 215 210 210 207 206 206 207 210 212 219 219
347 346 340 333 326 327 324 317 304 292 290 288 276 276 273 270 258 240 243 237 226 217 215 212 204 204 210 196 196 246 248 229 219 211 206 201 205 208 205 210 210 211 222
348 344 339 334 328 324 311 296 279 277 269 264 266 283 289 279 266 253 243 237 232 225 218 217 207 203 210 191 177 175 245 252 231 220 209 204 207 207 213 218 214 212 219
344 336 331 327 324 320 315 310 311 303 311 302 302 302 298 287 272 264 257 243 239 227 218 214 212 201 208 208 189 179 188 219 236 235 217 211 208 208 216 216 215 216 219
328 323 321 321 321 318 319 320 317 312 293 284 286 283 292 291 291 281 271 259 250 240 227 219 219 215 199 209 212 207 208 188 189 230 234 217 216 219 218 221 219 218 217
324 323 322 321 321 322 323 315 304 291 273 276 284 293 304 315 305 293 275 262 256 250 237 223 220 225 213 209 210 207 216 220 208 204 236 234 244 230 222 217 217 217 218
328 329 329 331 330 328 329 322 320 302 295 297 298 294 301 296 290 287 269 256 258 255 246 232 220 221 222 213 212 206 201 194 202 209 223 229 239 242 237 219 213 211 217